| time (UTC) | temp F | wind direction | speed MPH | gust MPH | rain 1hr in | rain 24hr in | rain mn in | humidity % | barometer mb |
| 20260506134525 | 63 | 224 | 1.0 | 3.0 | 0.00 | 0.00 | 0.00 | 74 | 1008.1 |
| 20260506134040 | 63 | 257 | 1.0 | 3.0 | 0.00 | 0.00 | 0.00 | 74 | 1007.9 |
| 20260506133525 | 63 | 257 | 1.0 | 8.0 | 0.00 | 0.00 | 0.00 | 75 | 1007.8 |
| 20260506133059 | 63 | 336 | 4.0 | 8.0 | 0.00 | 0.00 | 0.00 | 75 | 1007.7 |
| 20260506132546 | 62 | 289 | 1.0 | 5.0 | 0.00 | 0.00 | 0.00 | 76 | 1007.6 |
| 20260506132039 | 62 | 306 | 2.0 | 4.0 | 0.00 | 0.00 | 0.00 | 77 | 1007.8 |
| 20260506131553 | 62 | 180 | 1.0 | 4.0 | 0.00 | 0.00 | 0.00 | 77 | 1007.8 |
| 20260506131035 | 61 | 268 | 2.0 | 5.0 | 0.00 | 0.00 | 0.00 | 77 | 1007.7 |
| 20260506130550 | 61 | 218 | 3.0 | 5.0 | 0.00 | 0.00 | 0.00 | 77 | 1007.7 |
| 20260506130041 | 61 | 177 | 2.0 | 7.0 | 0.00 | 0.00 | 0.00 | 77 | 1007.9 |
| 20260506125552 | 61 | 136 | 2.0 | 7.0 | 0.00 | 0.00 | 0.00 | 77 | 1008.1 |
| 20260506125043 | 61 | 203 | 0.0 | 2.0 | 0.00 | 0.00 | 0.00 | 78 | 1008.2 |
| 20260506124529 | 61 | 251 | 0.0 | 3.0 | 0.00 | 0.00 | 0.00 | 78 | 1008.1 |
| 20260506124043 | 61 | 209 | 1.0 | 4.0 | 0.00 | 0.00 | 0.00 | 79 | 1008.3 |
| 20260506123558 | 61 | 126 | 0.0 | 4.0 | 0.00 | 0.00 | 0.00 | 79 | 1008.3 |
| 20260506123040 | 61 | 215 | 1.0 | 3.0 | 0.00 | 0.00 | 0.00 | 79 | 1008.4 |
| 20260506122535 | 60 | 254 | 1.0 | 3.0 | 0.00 | 0.00 | 0.00 | 80 | 1008.4 |
| 20260506122050 | 60 | 227 | 0.0 | 6.0 | 0.00 | 0.00 | 0.00 | 80 | 1008.5 |
| 20260506121536 | 60 | 155 | 1.0 | 6.0 | 0.00 | 0.00 | 0.00 | 80 | 1008.5 |
| 20260506121024 | 60 | 9 | 1.0 | 4.0 | 0.00 | 0.00 | 0.00 | 80 | 1008.5 |
| 20260506120536 | 59 | 265 | 1.0 | 4.0 | 0.00 | 0.00 | 0.00 | 81 | 1008.4 |
| 20260506120027 | 59 | 177 | 2.0 | 4.0 | 0.00 | 0.00 | 0.00 | 81 | 1008.3 |
| 20260506115557 | 59 | 157 | 0.0 | 4.0 | 0.00 | 0.00 | 0.00 | 82 | 1008.4 |
| 20260506115040 | 58 | 150 | 2.0 | 4.0 | 0.00 | 0.00 | 0.00 | 83 | 1008.3 |
| 20260506114535 | 57 | 224 | 2.0 | 4.0 | 0.00 | 0.00 | 0.00 | 84 | 1008.3 |
| 20260506114048 | 57 | 324 | 1.0 | 3.0 | 0.00 | 0.00 | 0.00 | 85 | 1008.3 |
| 20260506113533 | 56 | 323 | 0.0 | 3.0 | 0.00 | 0.00 | 0.00 | 85 | 1008.3 |
| 20260506113047 | 56 | 242 | 1.0 | 3.0 | 0.00 | 0.00 | 0.00 | 86 | 1008.4 |
| 20260506112541 | 56 | 17 | 0.0 | 0.0 | 0.00 | 0.00 | 0.00 | 86 | 1008.1 |
| 20260506112027 | 55 | 17 | 0.0 | 0.0 | 0.00 | 0.00 | 0.00 | 86 | 1008.5 |
| 20260506111603 | 55 | 17 | 0.0 | 0.0 | 0.00 | 0.00 | 0.00 | 86 | 1008.3 |
| 20260506111056 | 55 | 17 | 0.0 | 0.0 | 0.00 | 0.00 | 0.00 | 86 | 1008.3 |
| 20260506110549 | 55 | 17 | 0.0 | 0.0 | 0.00 | 0.00 | 0.00 | 86 | 1008.3 |
| 20260506110043 | 54 | 16 | 0.0 | 0.0 | 0.00 | 0.00 | 0.00 | 86 | 1008.2 |
| 20260506105527 | 54 | 15 | 0.0 | 0.0 | 0.00 | 0.00 | 0.00 | 87 | 1008.2 |
| 20260506105043 | 54 | 15 | 0.0 | 1.0 | 0.00 | 0.00 | 0.00 | 87 | 1008.2 |
| 20260506104529 | 54 | 14 | 0.0 | 4.0 | 0.00 | 0.00 | 0.00 | 87 | 1008.3 |
| 20260506104024 | 53 | 13 | 0.0 | 4.0 | 0.00 | 0.00 | 0.00 | 87 | 1008.6 |
| 20260506103553 | 53 | 236 | 0.0 | 1.0 | 0.00 | 0.00 | 0.00 | 86 | 1008.5 |
| 20260506103038 | 53 | 236 | 0.0 | 1.0 | 0.00 | 0.00 | 0.00 | 86 | 1008.3 |
| 20260506102533 | 52 | 236 | 0.0 | 0.0 | 0.00 | 0.00 | 0.00 | 86 | 1008.3 |
| 20260506102046 | 52 | 236 | 0.0 | 0.0 | 0.00 | 0.00 | 0.00 | 86 | 1008.2 |
| 20260506101550 | 52 | 236 | 0.0 | 1.0 | 0.00 | 0.00 | 0.00 | 86 | 1008.3 |
| 20260506101023 | 52 | 236 | 0.0 | 1.0 | 0.00 | 0.00 | 0.00 | 86 | 1008.3 |
| 20260506100538 | 52 | 237 | 0.0 | 0.0 | 0.00 | 0.00 | 0.00 | 85 | 1008.2 |
| 20260506100024 | 52 | 236 | 0.0 | 0.0 | 0.00 | 0.00 | 0.00 | 85 | 1008.1 |
| 20260506095559 | 52 | 236 | 0.0 | 0.0 | 0.00 | 0.00 | 0.00 | 85 | 1008.0 |
| 20260506095031 | 52 | 236 | 0.0 | 0.0 | 0.00 | 0.00 | 0.00 | 84 | 1007.9 |
| 20260506094536 | 53 | 239 | 0.0 | 0.0 | 0.00 | 0.00 | 0.00 | 84 | 1008.1 |
| 20260506094030 | 53 | 250 | 0.0 | 0.0 | 0.00 | 0.00 | 0.00 | 83 | 1008.0 |
| 20260506093543 | 53 | 250 | 0.0 | 1.0 | 0.00 | 0.00 | 0.00 | 83 | 1007.9 |
| 20260506093058 | 53 | 250 | 0.0 | 1.0 | 0.00 | 0.00 | 0.00 | 82 | 1007.9 |
| 20260506092541 | 53 | 250 | 0.0 | 1.0 | 0.00 | 0.00 | 0.00 | 82 | 1007.8 |
| 20260506092033 | 54 | 250 | 0.0 | 1.0 | 0.00 | 0.00 | 0.00 | 82 | 1007.9 |
| 20260506091537 | 54 | 250 | 0.0 | 0.0 | 0.00 | 0.00 | 0.00 | 82 | 1008.0 |
| 20260506091050 | 54 | 250 | 0.0 | 0.0 | 0.00 | 0.00 | 0.00 | 81 | 1008.1 |
| 20260506090522 | 54 | 250 | 0.0 | 0.0 | 0.00 | 0.00 | 0.00 | 81 | 1008.1 |
| 20260506090050 | 54 | 250 | 0.0 | 0.0 | 0.00 | 0.00 | 0.00 | 81 | 1008.1 |
| 20260506085602 | 55 | 250 | 0.0 | 0.0 | 0.00 | 0.00 | 0.00 | 80 | 1008.1 |
| 20260506085047 | 55 | 250 | 0.0 | 0.0 | 0.00 | 0.00 | 0.00 | 80 | 1008.1 |
| 20260506084539 | 55 | 250 | 0.0 | 0.0 | 0.00 | 0.00 | 0.00 | 79 | 1008.3 |
| 20260506084033 | 55 | 250 | 0.0 | 0.0 | 0.00 | 0.00 | 0.00 | 79 | 1008.2 |
| 20260506083606 | 56 | 250 | 0.0 | 0.0 | 0.00 | 0.00 | 0.00 | 78 | 1008.1 |
| 20260506083059 | 56 | 250 | 0.0 | 0.0 | 0.00 | 0.00 | 0.00 | 78 | 1008.0 |
| 20260506082541 | 56 | 250 | 0.0 | 0.0 | 0.00 | 0.00 | 0.00 | 78 | 1008.0 |
| 20260506082034 | 56 | 250 | 0.0 | 2.0 | 0.00 | 0.00 | 0.00 | 78 | 1008.1 |
| 20260506081550 | 56 | 250 | 0.0 | 2.0 | 0.00 | 0.00 | 0.00 | 77 | 1008.2 |
| 20260506081034 | 57 | 251 | 0.0 | 1.0 | 0.00 | 0.00 | 0.00 | 77 | 1008.2 |
| 20260506080544 | 57 | 250 | 0.0 | 2.0 | 0.00 | 0.00 | 0.00 | 77 | 1008.1 |
| 20260506073023 | 59 | 292 | 0.0 | 2.0 | 0.00 | 0.00 | 0.00 | 73 | 1008.1 |
| 20260506072538 | 59 | 294 | 0.0 | 1.0 | 0.00 | 0.00 | 0.00 | 72 | 1008.2 |
| 20260506072023 | 60 | 294 | 0.0 | 1.0 | 0.00 | 0.00 | 0.00 | 71 | 1008.2 |
| 20260506071539 | 60 | 295 | 0.0 | 1.0 | 0.00 | 0.00 | 0.00 | 70 | 1008.2 |
| 20260506071054 | 61 | 295 | 0.0 | 1.0 | 0.00 | 0.00 | 0.00 | 70 | 1008.3 |
| 20260506070548 | 61 | 295 | 0.0 | 2.0 | 0.00 | 0.00 | 0.00 | 69 | 1008.3 |
| 20260506062059 | 62 | 90 | 1.0 | 3.0 | 0.00 | 0.00 | 0.00 | 67 | 1008.3 |
| 20260506061532 | 62 | 300 | 1.0 | 3.0 | 0.00 | 0.00 | 0.00 | 67 | 1008.3 |
| 20260506061039 | 62 | 187 | 1.0 | 3.0 | 0.00 | 0.00 | 0.00 | 67 | 1008.3 |
| 20260506060531 | 62 | 283 | 1.0 | 3.0 | 0.00 | 0.00 | 0.00 | 66 | 1008.2 |
| 20260506051024 | 63 | 124 | 2.0 | 7.0 | 0.00 | 0.00 | 0.00 | 63 | 1008.5 |
| 20260506050530 | 63 | 189 | 1.0 | 3.0 | 0.00 | 0.00 | 0.00 | 63 | 1008.6 |
| 20260506045043 | 63 | 332 | 1.0 | 4.0 | 0.00 | 0.00 | 0.00 | 63 | 1008.5 |
| 20260506044528 | 63 | 331 | 1.0 | 4.0 | 0.00 | 0.00 | 0.00 | 63 | 1008.4 |
| 20260506044022 | 63 | 188 | 1.0 | 4.0 | 0.00 | 0.00 | 0.00 | 64 | 1008.5 |
| 20260506043536 | 63 | 302 | 1.0 | 6.0 | 0.00 | 0.00 | 0.00 | 63 | 1008.5 |
| 20260506043040 | 62 | 163 | 2.0 | 6.0 | 0.00 | 0.00 | 0.00 | 64 | 1008.5 |
| 20260506042554 | 62 | 164 | 1.0 | 2.0 | 0.00 | 0.00 | 0.00 | 66 | 1008.4 |
| 20260506042027 | 61 | 259 | 0.0 | 3.0 | 0.00 | 0.00 | 0.00 | 67 | 1008.3 |
| 20260506041555 | 61 | 121 | 1.0 | 3.0 | 0.00 | 0.00 | 0.00 | 68 | 1008.3 |
| 20260506041047 | 61 | 188 | 0.0 | 3.0 | 0.00 | 0.00 | 0.00 | 68 | 1008.3 |
| 20260506040533 | 61 | 177 | 1.0 | 3.0 | 0.00 | 0.00 | 0.00 | 68 | 1008.4 |
| 20260506040048 | 61 | 70 | 0.0 | 2.0 | 0.00 | 0.00 | 0.00 | 68 | 1008.4 |
| 20260506035530 | 61 | 69 | 1.0 | 2.0 | 0.00 | 0.00 | 0.00 | 68 | 1008.4 |
| 20260506035024 | 62 | 139 | 1.0 | 2.0 | 0.00 | 0.00 | 0.00 | 68 | 1008.5 |
| 20260506034531 | 62 | 138 | 1.0 | 1.0 | 0.00 | 0.00 | 0.00 | 67 | 1008.5 |
| 20260506034025 | 62 | 138 | 0.0 | 1.0 | 0.00 | 0.00 | 0.00 | 67 | 1008.5 |
| 20260506033539 | 62 | 138 | 0.0 | 1.0 | 0.00 | 0.00 | 0.00 | 67 | 1008.4 |
| 20260506033024 | 62 | 138 | 0.0 | 2.0 | 0.00 | 0.00 | 0.00 | 66 | 1008.3 |
| 20260506032539 | 62 | 138 | 1.0 | 3.0 | 0.00 | 0.00 | 0.00 | 67 | 1008.3 |
| 20260506032025 | 62 | 138 | 2.0 | 3.0 | 0.00 | 0.00 | 0.00 | 66 | 1008.3 |
| 20260506031539 | 62 | 152 | 1.0 | 3.0 | 0.00 | 0.00 | 0.00 | 66 | 1008.3 |
| 20260506031025 | 62 | 113 | 1.0 | 2.0 | 0.00 | 0.00 | 0.00 | 67 | 1008.3 |
| 20260506030539 | 62 | 104 | 0.0 | 3.0 | 0.00 | 0.00 | 0.00 | 67 | 1008.3 |
| 20260506030052 | 62 | 72 | 1.0 | 3.0 | 0.00 | 0.00 | 0.00 | 67 | 1008.4 |
| 20260506025546 | 62 | 64 | 0.0 | 2.0 | 0.00 | 0.00 | 0.00 | 68 | 1008.4 |
| 20260506025039 | 63 | 61 | 1.0 | 2.0 | 0.00 | 0.00 | 0.00 | 67 | 1008.3 |
| 20260506024525 | 63 | 184 | 0.0 | 2.0 | 0.00 | 0.00 | 0.00 | 67 | 1008.5 |
| 20260506024039 | 63 | 142 | 0.0 | 0.0 | 0.00 | 0.00 | 0.00 | 66 | 1008.4 |
| 20260506023524 | 63 | 142 | 0.0 | 0.0 | 0.00 | 0.00 | 0.00 | 66 | 1008.4 |
| 20260506023035 | 64 | 142 | 0.0 | 0.0 | 0.00 | 0.00 | 0.00 | 65 | 1008.5 |
| 20260506022550 | 64 | 142 | 0.0 | 0.0 | 0.00 | 0.00 | 0.00 | 65 | 1008.5 |
| 20260506022036 | 64 | 142 | 0.0 | 0.0 | 0.00 | 0.00 | 0.00 | 65 | 1008.5 |
| 20260506021531 | 64 | 142 | 0.0 | 0.0 | 0.00 | 0.00 | 0.00 | 64 | 1008.4 |
| 20260506021037 | 64 | 142 | 0.0 | 0.0 | 0.00 | 0.00 | 0.00 | 64 | 1008.4 |
| 20260506020549 | 65 | 142 | 0.0 | 0.0 | 0.00 | 0.00 | 0.00 | 63 | 1008.4 |
| 20260506015555 | 65 | 142 | 0.0 | 0.0 | 0.00 | 0.00 | 0.00 | 62 | 1008.3 |
| 20260506015049 | 65 | 142 | 0.0 | 0.0 | 0.00 | 0.00 | 0.00 | 62 | 1008.4 |
| 20260506014535 | 65 | 142 | 0.0 | 1.0 | 0.00 | 0.00 | 0.00 | 62 | 1008.3 |
| 20260506014029 | 65 | 142 | 0.0 | 1.0 | 0.00 | 0.00 | 0.00 | 62 | 1008.3 |
| 20260506013536 | 66 | 142 | 0.0 | 1.0 | 0.00 | 0.00 | 0.00 | 62 | 1008.2 |
| 20260506013029 | 66 | 142 | 0.0 | 1.0 | 0.00 | 0.00 | 0.00 | 62 | 1008.2 |
| 20260506012545 | 66 | 142 | 0.0 | 1.0 | 0.00 | 0.00 | 0.00 | 61 | 1008.2 |
| 20260506012030 | 66 | 142 | 0.0 | 1.0 | 0.00 | 0.00 | 0.00 | 61 | 1008.2 |
| 20260506011544 | 67 | 142 | 0.0 | 2.0 | 0.00 | 0.00 | 0.00 | 60 | 1008.2 |
| 20260506011030 | 67 | 142 | 0.0 | 3.0 | 0.00 | 0.00 | 0.00 | 60 | 1008.1 |
| 20260506010524 | 67 | 142 | 1.0 | 3.0 | 0.00 | 0.00 | 0.00 | 60 | 1008.1 |
| 20260506010100 | 67 | 136 | 1.0 | 2.0 | 0.00 | 0.00 | 0.00 | 60 | 1008.0 |
| 20260506005525 | 67 | 135 | 0.0 | 1.0 | 0.00 | 0.00 | 0.00 | 60 | 1007.9 |
| 20260506005035 | 68 | 135 | 0.0 | 1.0 | 0.00 | 0.00 | 0.00 | 59 | 1007.9 |
| 20260506004549 | 68 | 135 | 0.0 | 1.0 | 0.00 | 0.00 | 0.00 | 58 | 1007.9 |
| 20260506004035 | 68 | 135 | 0.0 | 2.0 | 0.00 | 0.00 | 0.00 | 58 | 1007.8 |
| 20260506003530 | 69 | 87 | 1.0 | 3.0 | 0.00 | 0.00 | 0.00 | 56 | 1007.8 |
| 20260506003037 | 69 | 76 | 0.0 | 3.0 | 0.00 | 0.00 | 0.00 | 56 | 1007.7 |
| 20260506002531 | 69 | 193 | 1.0 | 3.0 | 0.00 | 0.00 | 0.00 | 52 | 1007.6 |
| 20260506002046 | 69 | 119 | 0.0 | 1.0 | 0.00 | 0.00 | 0.00 | 53 | 1007.6 |
| 20260506001531 | 69 | 115 | 0.0 | 1.0 | 0.00 | 0.00 | 0.00 | 53 | 1007.5 |
| 20260506001045 | 70 | 39 | 0.0 | 2.0 | 0.00 | 0.00 | 0.00 | 53 | 1007.3 |
| 20260506000557 | 70 | 39 | 1.0 | 3.0 | 0.00 | 0.00 | 0.00 | 52 | 1007.3 |
| 20260506000041 | 70 | 294 | 0.0 | 3.0 | 0.00 | 0.00 | 0.00 | 52 | 1007.3 |
| 20260505235535 | 70 | 304 | 0.0 | 4.0 | 0.00 | 0.00 | 0.00 | 50 | 1007.2 |
| 20260505235050 | 71 | 304 | 0.0 | 4.0 | 0.00 | 0.00 | 0.00 | 51 | 1007.0 |
| 20260505234534 | 71 | 219 | 0.0 | 2.0 | 0.00 | 0.00 | 0.00 | 50 | 1006.9 |
| 20260505234048 | 71 | 219 | 0.0 | 2.0 | 0.00 | 0.00 | 0.00 | 50 | 1006.9 |
| 20260505233534 | 71 | 192 | 0.0 | 4.0 | 0.00 | 0.00 | 0.00 | 48 | 1006.8 |
| 20260505233029 | 72 | 157 | 1.0 | 3.0 | 0.00 | 0.00 | 0.00 | 49 | 1006.7 |
| 20260505232535 | 72 | 178 | 1.0 | 2.0 | 0.00 | 0.00 | 0.00 | 47 | 1006.6 |
| 20260505232049 | 72 | 178 | 0.0 | 2.0 | 0.00 | 0.00 | 0.00 | 47 | 1006.6 |
| 20260505231537 | 72 | 178 | 1.0 | 3.0 | 0.00 | 0.00 | 0.00 | 48 | 1006.5 |
| 20260505231023 | 72 | 181 | 0.0 | 3.0 | 0.00 | 0.00 | 0.00 | 47 | 1006.4 |
| 20260505230537 | 73 | 221 | 1.0 | 3.0 | 0.00 | 0.00 | 0.00 | 46 | 1006.3 |
| 20260505230048 | 73 | 191 | 0.0 | 2.0 | 0.00 | 0.00 | 0.00 | 46 | 1006.2 |
| 20260505225542 | 73 | 192 | 1.0 | 5.0 | 0.00 | 0.00 | 0.00 | 46 | 1006.2 |
| 20260505225025 | 73 | 114 | 3.0 | 5.0 | 0.00 | 0.00 | 0.00 | 44 | 1006.1 |
| 20260505224540 | 73 | 181 | 0.0 | 4.0 | 0.00 | 0.00 | 0.00 | 45 | 1006.0 |
| 20260505224026 | 74 | 180 | 1.0 | 5.0 | 0.00 | 0.00 | 0.00 | 44 | 1006.0 |
| 20260505223539 | 74 | 151 | 3.0 | 7.0 | 0.00 | 0.00 | 0.00 | 43 | 1006.0 |
| 20260505223053 | 74 | 149 | 3.0 | 7.0 | 0.00 | 0.00 | 0.00 | 43 | 1006.0 |
| 20260505222547 | 74 | 151 | 2.0 | 7.0 | 0.00 | 0.00 | 0.00 | 43 | 1005.9 |
| 20260505222033 | 74 | 212 | 4.0 | 7.0 | 0.00 | 0.00 | 0.00 | 43 | 1005.7 |
| 20260505221530 | 75 | 146 | 2.0 | 4.0 | 0.00 | 0.00 | 0.00 | 43 | 1005.7 |
| 20260505221035 | 75 | 140 | 1.0 | 13.0 | 0.00 | 0.00 | 0.00 | 43 | 1005.8 |
| 20260505220529 | 75 | 175 | 3.0 | 13.0 | 0.00 | 0.00 | 0.00 | 43 | 1005.7 |
| 20260505220045 | 75 | 246 | 2.0 | 5.0 | 0.00 | 0.00 | 0.00 | 44 | 1005.7 |
| 20260505215529 | 75 | 159 | 0.0 | 6.0 | 0.00 | 0.00 | 0.00 | 43 | 1005.6 |
| 20260505215043 | 75 | 76 | 3.0 | 14.0 | 0.00 | 0.00 | 0.00 | 42 | 1005.6 |
| 20260505214529 | 76 | 171 | 3.0 | 14.0 | 0.00 | 0.00 | 0.00 | 41 | 1005.6 |
| 20260505214043 | 76 | 147 | 3.0 | 7.0 | 0.00 | 0.00 | 0.00 | 40 | 1005.6 |
| 20260505213526 | 76 | 146 | 1.0 | 8.0 | 0.00 | 0.00 | 0.00 | 40 | 1005.7 |
| 20260505213039 | 76 | 112 | 4.0 | 7.0 | 0.00 | 0.00 | 0.00 | 38 | 1005.6 |
| 20260505212554 | 77 | 190 | 2.0 | 7.0 | 0.00 | 0.00 | 0.00 | 38 | 1005.4 |
| 20260505212028 | 77 | 179 | 3.0 | 9.0 | 0.00 | 0.00 | 0.00 | 36 | 1005.3 |
| 20260505211532 | 77 | 231 | 3.0 | 9.0 | 0.00 | 0.00 | 0.00 | 36 | 1005.2 |
| 20260505211047 | 78 | 168 | 4.0 | 9.0 | 0.00 | 0.00 | 0.00 | 35 | 1005.2 |
| 20260505210541 | 78 | 169 | 4.0 | 9.0 | 0.00 | 0.00 | 0.00 | 36 | 1005.2 |
| 20260505210026 | 78 | 96 | 3.0 | 9.0 | 0.00 | 0.00 | 0.00 | 36 | 1005.3 |
| 20260505205539 | 78 | 175 | 4.0 | 7.0 | 0.00 | 0.00 | 0.00 | 35 | 1005.6 |
| 20260505205034 | 78 | 163 | 3.0 | 8.0 | 0.00 | 0.00 | 0.00 | 35 | 1005.7 |
| 20260505204539 | 78 | 187 | 3.0 | 9.0 | 0.00 | 0.00 | 0.00 | 36 | 1005.7 |
| 20260505204034 | 78 | 180 | 4.0 | 8.0 | 0.00 | 0.00 | 0.00 | 36 | 1005.7 |
| 20260505203549 | 78 | 209 | 5.0 | 9.0 | 0.00 | 0.00 | 0.00 | 36 | 1005.5 |
| 20260505203033 | 78 | 225 | 3.0 | 7.0 | 0.00 | 0.00 | 0.00 | 36 | 1005.6 |
| 20260505202546 | 78 | 212 | 3.0 | 7.0 | 0.00 | 0.00 | 0.00 | 35 | 1005.4 |
| 20260505202059 | 78 | 136 | 4.0 | 7.0 | 0.00 | 0.00 | 0.00 | 36 | 1005.4 |
| 20260505201544 | 78 | 288 | 2.0 | 10.0 | 0.00 | 0.00 | 0.00 | 37 | 1005.3 |
| 20260505201106 | 78 | 178 | 3.0 | 10.0 | 0.00 | 0.00 | 0.00 | 38 | 1005.3 |
| 20260505200544 | 78 | 135 | 2.0 | 8.0 | 0.00 | 0.00 | 0.00 | 37 | 1005.4 |
| 20260505200056 | 78 | 196 | 2.0 | 9.0 | 0.00 | 0.00 | 0.00 | 39 | 1005.6 |
| 20260505195527 | 77 | 140 | 4.0 | 10.0 | 0.00 | 0.00 | 0.00 | 37 | 1005.5 |
| 20260505195040 | 77 | 179 | 3.0 | 10.0 | 0.00 | 0.00 | 0.00 | 38 | 1005.7 |
| 20260505194544 | 78 | 204 | 6.0 | 10.0 | 0.00 | 0.00 | 0.00 | 37 | 1005.9 |
| 20260505194036 | 78 | 192 | 6.0 | 10.0 | 0.00 | 0.00 | 0.00 | 36 | 1005.7 |
| 20260505193550 | 79 | 220 | 2.0 | 10.0 | 0.00 | 0.00 | 0.00 | 37 | 1005.8 |
| 20260505193042 | 79 | 107 | 6.0 | 10.0 | 0.00 | 0.00 | 0.00 | 35 | 1005.9 |
| 20260505192527 | 79 | 257 | 4.0 | 8.0 | 0.00 | 0.00 | 0.00 | 35 | 1005.9 |
| 20260505192041 | 79 | 217 | 2.0 | 7.0 | 0.00 | 0.00 | 0.00 | 36 | 1005.8 |
| 20260505191526 | 79 | 171 | 5.0 | 7.0 | 0.00 | 0.00 | 0.00 | 35 | 1005.9 |
| 20260505191040 | 78 | 309 | 3.0 | 12.0 | 0.00 | 0.00 | 0.00 | 37 | 1005.9 |
| 20260505190524 | 78 | 225 | 5.0 | 12.0 | 0.00 | 0.00 | 0.00 | 35 | 1005.9 |
| 20260505190036 | 78 | 103 | 2.0 | 12.0 | 0.00 | 0.00 | 0.00 | 37 | 1006.2 |
| 20260505185530 | 78 | 155 | 4.0 | 8.0 | 0.00 | 0.00 | 0.00 | 36 | 1006.2 |
| 20260505185036 | 78 | 142 | 3.0 | 7.0 | 0.00 | 0.00 | 0.00 | 35 | 1006.0 |
| 20260505184530 | 78 | 192 | 3.0 | 8.0 | 0.00 | 0.00 | 0.00 | 36 | 1006.1 |
| 20260505184045 | 78 | 38 | 3.0 | 11.0 | 0.00 | 0.00 | 0.00 | 36 | 1006.7 |
| 20260505183529 | 78 | 202 | 5.0 | 11.0 | 0.00 | 0.00 | 0.00 | 36 | 1006.8 |
| 20260505183038 | 78 | 223 | 3.0 | 10.0 | 0.00 | 0.00 | 0.00 | 38 | 1006.6 |
| 20260505182523 | 78 | 294 | 5.0 | 10.0 | 0.00 | 0.00 | 0.00 | 37 | 1006.5 |
| 20260505182057 | 78 | 177 | 4.0 | 10.0 | 0.00 | 0.00 | 0.00 | 37 | 1006.7 |
| 20260505181526 | 78 | 288 | 3.0 | 10.0 | 0.00 | 0.00 | 0.00 | 37 | 1006.5 |
| 20260505181101 | 79 | 80 | 5.0 | 10.0 | 0.00 | 0.00 | 0.00 | 35 | 1006.7 |
| 20260505180523 | 78 | 320 | 4.0 | 13.0 | 0.00 | 0.00 | 0.00 | 37 | 1006.6 |
| 20260505180036 | 78 | 127 | 4.0 | 13.0 | 0.00 | 0.00 | 0.00 | 37 | 1007.0 |
| 20260505175550 | 79 | 337 | 3.0 | 11.0 | 0.00 | 0.00 | 0.00 | 35 | 1006.9 |
| 20260505175035 | 78 | 129 | 4.0 | 11.0 | 0.00 | 0.00 | 0.00 | 36 | 1006.8 |
| 20260505174527 | 78 | 288 | 2.0 | 11.0 | 0.00 | 0.00 | 0.00 | 37 | 1006.7 |
| 20260505174032 | 78 | 155 | 3.0 | 8.0 | 0.00 | 0.00 | 0.00 | 38 | 1006.9 |
| 20260505173525 | 78 | 160 | 4.0 | 8.0 | 0.00 | 0.00 | 0.00 | 36 | 1006.9 |
| 20260505173039 | 78 | 13 | 2.0 | 8.0 | 0.00 | 0.00 | 0.00 | 39 | 1007.0 |
| 20260505172523 | 78 | 164 | 3.0 | 7.0 | 0.00 | 0.00 | 0.00 | 39 | 1007.1 |
| 20260505172036 | 78 | 169 | 2.0 | 10.0 | 0.00 | 0.00 | 0.00 | 38 | 1007.1 |
| 20260505171547 | 78 | 355 | 4.0 | 10.0 | 0.00 | 0.00 | 0.00 | 37 | 1007.0 |
| 20260505171030 | 78 | 131 | 4.0 | 6.0 | 0.00 | 0.00 | 0.00 | 38 | 1007.0 |
| 20260505170543 | 78 | 5 | 3.0 | 7.0 | 0.00 | 0.00 | 0.00 | 39 | 1007.1 |
| 20260505170025 | 77 | 50 | 2.0 | 16.0 | 0.00 | 0.00 | 0.00 | 40 | 1007.2 |
| 20260505165532 | 77 | 123 | 6.0 | 16.0 | 0.00 | 0.00 | 0.00 | 41 | 1007.3 |
| 20260505165025 | 77 | 211 | 2.0 | 6.0 | 0.00 | 0.00 | 0.00 | 41 | 1007.2 |
| 20260505164530 | 76 | 142 | 2.0 | 6.0 | 0.00 | 0.00 | 0.00 | 41 | 1007.3 |
| 20260505164044 | 76 | 336 | 2.0 | 10.0 | 0.00 | 0.00 | 0.00 | 43 | 1007.4 |
| 20260505163558 | 76 | 200 | 4.0 | 7.0 | 0.00 | 0.00 | 0.00 | 41 | 1007.5 |
| 20260505163050 | 76 | 304 | 1.0 | 8.0 | 0.00 | 0.00 | 0.00 | 42 | 1007.6 |
| 20260505162541 | 76 | 316 | 2.0 | 8.0 | 0.00 | 0.00 | 0.00 | 41 | 1007.7 |
| 20260505162026 | 76 | 211 | 2.0 | 8.0 | 0.00 | 0.00 | 0.00 | 41 | 1007.7 |
| 20260505161538 | 76 | 227 | 4.0 | 8.0 | 0.00 | 0.00 | 0.00 | 42 | 1007.7 |
| 20260505161023 | 76 | 213 | 4.0 | 9.0 | 0.00 | 0.00 | 0.00 | 42 | 1007.8 |
| 20260505160536 | 76 | 200 | 4.0 | 9.0 | 0.00 | 0.00 | 0.00 | 42 | 1007.9 |
| 20260505153049 | 74 | 195 | 4.0 | 8.0 | 0.00 | 0.00 | 0.00 | 45 | 1008.5 |
| 20260505152533 | 74 | 197 | 3.0 | 5.0 | 0.00 | 0.00 | 0.00 | 44 | 1008.5 |
| 20260505152025 | 73 | 355 | 1.0 | 7.0 | 0.00 | 0.00 | 0.00 | 47 | 1008.5 |
| 20260505151531 | 73 | 173 | 4.0 | 7.0 | 0.00 | 0.00 | 0.00 | 45 | 1008.5 |
| 20260505151024 | 73 | 207 | 4.0 | 7.0 | 0.00 | 0.00 | 0.00 | 46 | 1008.6 |
| 20260505150558 | 72 | 76 | 1.0 | 10.0 | 0.00 | 0.00 | 0.00 | 48 | 1008.5 |
| 20260505140540 | 70 | 221 | 3.0 | 10.0 | 0.00 | 0.00 | 0.00 | 49 | 1009.2 |